Year,Month,Day,Hour,Minute,Value (Times are PST for temperature in C)
2018,10,21,00,00,5.80
2018,10,21,00,01,5.80
2018,10,21,00,02,5.90
2018,10,21,00,03,5.90
2018,10,21,00,04,5.90
2018,10,21,00,05,5.90
2018,10,21,00,06,5.90
2018,10,21,00,07,6.00
2018,10,21,00,08,6.00
2018,10,21,00,09,6.00
2018,10,21,00,10,6.00
2018,10,21,00,11,6.10
2018,10,21,00,12,6.10
2018,10,21,00,13,6.10
2018,10,21,00,14,6.10
2018,10,21,00,15,6.10
2018,10,21,00,16,6.20
2018,10,21,00,17,6.20
2018,10,21,00,18,6.20
2018,10,21,00,19,6.20
2018,10,21,00,20,6.10
2018,10,21,00,21,6.10
2018,10,21,00,22,6.10
2018,10,21,00,23,6.00
2018,10,21,00,24,6.00
2018,10,21,00,25,6.00
2018,10,21,00,26,6.00
2018,10,21,00,27,6.00
2018,10,21,00,28,6.00
2018,10,21,00,29,6.00
2018,10,21,00,30,5.90
2018,10,21,00,31,5.90
2018,10,21,00,32,5.90
2018,10,21,00,33,5.90
2018,10,21,00,34,5.90
2018,10,21,00,35,5.90
2018,10,21,00,36,5.80
2018,10,21,00,37,5.80
2018,10,21,00,38,5.80
2018,10,21,00,39,5.80
2018,10,21,00,40,5.80
2018,10,21,00,41,5.80
2018,10,21,00,42,5.80
2018,10,21,00,43,5.90
2018,10,21,00,44,5.90
2018,10,21,00,45,5.90
2018,10,21,00,46,5.90
2018,10,21,00,47,5.90
2018,10,21,00,48,5.90
2018,10,21,00,49,5.90
2018,10,21,00,50,5.90
2018,10,21,00,51,5.90
2018,10,21,00,52,5.80
2018,10,21,00,53,5.80
2018,10,21,00,54,5.80
2018,10,21,00,55,5.80
2018,10,21,00,56,5.70
2018,10,21,00,57,5.70
2018,10,21,00,58,5.70
2018,10,21,00,59,5.70
2018,10,21,01,00,5.70
2018,10,21,01,01,5.70
2018,10,21,01,02,5.70
2018,10,21,01,03,5.70
2018,10,21,01,04,5.70
2018,10,21,01,05,5.70
2018,10,21,01,06,5.70
2018,10,21,01,07,5.60
2018,10,21,01,08,5.60
2018,10,21,01,09,5.60
2018,10,21,01,10,5.60
2018,10,21,01,11,5.60
2018,10,21,01,12,5.60
2018,10,21,01,13,5.60
2018,10,21,01,14,5.60
2018,10,21,01,15,5.60
2018,10,21,01,16,5.50
2018,10,21,01,17,5.50
2018,10,21,01,18,5.50
2018,10,21,01,19,5.50
2018,10,21,01,20,5.50
2018,10,21,01,21,5.50
2018,10,21,01,22,5.60
2018,10,21,01,23,5.60
2018,10,21,01,24,5.60
2018,10,21,01,25,5.60
2018,10,21,01,26,5.70
2018,10,21,01,27,5.70
2018,10,21,01,28,5.70
2018,10,21,01,29,5.70
2018,10,21,01,30,5.70
2018,10,21,01,31,5.60
2018,10,21,01,32,5.60
2018,10,21,01,33,5.60
2018,10,21,01,34,5.50
2018,10,21,01,35,5.50
2018,10,21,01,36,5.50
2018,10,21,01,37,5.50
2018,10,21,01,38,5.40
2018,10,21,01,39,5.40
2018,10,21,01,40,5.40
2018,10,21,01,41,5.30
2018,10,21,01,42,5.30
2018,10,21,01,43,5.30
2018,10,21,01,44,5.30
2018,10,21,01,45,5.30
2018,10,21,01,46,5.30
2018,10,21,01,47,5.30
2018,10,21,01,48,5.30
2018,10,21,01,49,5.30
2018,10,21,01,50,5.30
2018,10,21,01,51,5.30
2018,10,21,01,52,5.30
2018,10,21,01,53,5.30
2018,10,21,01,54,5.30
2018,10,21,01,55,5.30
2018,10,21,01,56,5.30
2018,10,21,01,57,5.40
2018,10,21,01,58,5.40
2018,10,21,01,59,5.40
2018,10,21,02,00,5.40
2018,10,21,02,01,5.40
2018,10,21,02,02,5.40
2018,10,21,02,03,5.40
2018,10,21,02,04,5.40
2018,10,21,02,05,5.40
2018,10,21,02,06,5.40
2018,10,21,02,07,5.40
2018,10,21,02,08,5.40
2018,10,21,02,09,5.40
2018,10,21,02,10,5.40
2018,10,21,02,11,5.40
2018,10,21,02,12,5.40
2018,10,21,02,13,5.30
2018,10,21,02,14,5.30
2018,10,21,02,15,5.30
2018,10,21,02,16,5.30
2018,10,21,02,17,5.30
2018,10,21,02,18,5.30
2018,10,21,02,19,5.30
2018,10,21,02,20,5.30
2018,10,21,02,21,5.30
2018,10,21,02,22,5.30
2018,10,21,02,23,5.30
2018,10,21,02,24,5.30
2018,10,21,02,25,5.30
2018,10,21,02,26,5.30
2018,10,21,02,27,5.20
2018,10,21,02,28,5.20
2018,10,21,02,29,5.20
2018,10,21,02,30,5.20
2018,10,21,02,31,5.20
2018,10,21,02,32,5.10
2018,10,21,02,33,5.10
2018,10,21,02,34,5.10
2018,10,21,02,35,5.10
2018,10,21,02,36,5.10
2018,10,21,02,37,5.10
2018,10,21,02,38,5.10
2018,10,21,02,39,5.10
2018,10,21,02,40,5.10
2018,10,21,02,41,5.10
2018,10,21,02,42,5.10
2018,10,21,02,43,5.10
2018,10,21,02,44,5.10
2018,10,21,02,45,5.10
2018,10,21,02,46,5.10
2018,10,21,02,47,5.10
2018,10,21,02,48,5.10
2018,10,21,02,49,5.10
2018,10,21,02,50,5.10
2018,10,21,02,51,5.10
2018,10,21,02,52,5.10
2018,10,21,02,53,5.10
2018,10,21,02,54,5.10
2018,10,21,02,55,5.10
2018,10,21,02,56,5.10
2018,10,21,02,57,5.00
2018,10,21,02,58,4.90
2018,10,21,02,59,4.90
2018,10,21,03,00,4.90
2018,10,21,03,01,4.90
2018,10,21,03,02,4.90
2018,10,21,03,03,4.90
2018,10,21,03,04,4.90
2018,10,21,03,05,4.90
2018,10,21,03,06,4.90
2018,10,21,03,07,4.90
2018,10,21,03,08,4.90
2018,10,21,03,09,4.90
2018,10,21,03,10,4.90
2018,10,21,03,11,4.90
2018,10,21,03,12,4.90
2018,10,21,03,13,4.90
2018,10,21,03,14,4.90
2018,10,21,03,15,4.90
2018,10,21,03,16,4.90
2018,10,21,03,17,4.90
2018,10,21,03,18,4.90
2018,10,21,03,19,5.00
2018,10,21,03,20,5.10
2018,10,21,03,21,5.10
2018,10,21,03,22,5.10
2018,10,21,03,23,5.10
2018,10,21,03,24,5.10
2018,10,21,03,25,5.10
2018,10,21,03,26,5.10
2018,10,21,03,27,5.10
2018,10,21,03,28,5.00
2018,10,21,03,29,4.90
2018,10,21,03,30,4.90
2018,10,21,03,31,4.90
2018,10,21,03,32,4.90
2018,10,21,03,33,4.90
2018,10,21,03,34,4.80
2018,10,21,03,35,4.80
2018,10,21,03,36,4.80
2018,10,21,03,37,4.80
2018,10,21,03,38,4.80
2018,10,21,03,39,4.80
2018,10,21,03,40,4.80
2018,10,21,03,41,4.80
2018,10,21,03,42,4.70
2018,10,21,03,43,4.70
2018,10,21,03,44,4.70
2018,10,21,03,45,4.70
2018,10,21,03,46,4.70
2018,10,21,03,47,4.70
2018,10,21,03,48,4.70
2018,10,21,03,49,4.70
2018,10,21,03,50,4.70
2018,10,21,03,51,4.70
2018,10,21,03,52,4.70
2018,10,21,03,53,4.60
2018,10,21,03,54,4.60
2018,10,21,03,55,4.60
2018,10,21,03,56,4.60
2018,10,21,03,57,4.60
2018,10,21,03,58,4.60
2018,10,21,03,59,4.60
2018,10,21,04,00,4.60
2018,10,21,04,01,4.60
2018,10,21,04,02,4.60
2018,10,21,04,03,4.60
2018,10,21,04,04,4.50
2018,10,21,04,05,4.50
2018,10,21,04,06,4.50
2018,10,21,04,07,4.50
2018,10,21,04,08,4.60
2018,10,21,04,09,4.60
2018,10,21,04,10,4.60
2018,10,21,04,11,4.60
2018,10,21,04,12,4.60
2018,10,21,04,13,4.60
2018,10,21,04,14,4.60
2018,10,21,04,15,4.60
2018,10,21,04,16,4.60
2018,10,21,04,17,4.60
2018,10,21,04,18,4.60
2018,10,21,04,19,4.60
2018,10,21,04,20,4.60
2018,10,21,04,21,4.60
2018,10,21,04,22,4.60
2018,10,21,04,23,4.60
2018,10,21,04,24,4.60
2018,10,21,04,25,4.50
2018,10,21,04,26,4.50
2018,10,21,04,27,4.50
2018,10,21,04,28,4.50
2018,10,21,04,29,4.50
2018,10,21,04,30,4.40
2018,10,21,04,31,4.40
2018,10,21,04,32,4.40
2018,10,21,04,33,4.50
2018,10,21,04,34,4.50
2018,10,21,04,35,4.50
2018,10,21,04,36,4.50
2018,10,21,04,37,4.40
2018,10,21,04,38,4.40
2018,10,21,04,39,4.40
2018,10,21,04,40,4.40
2018,10,21,04,41,4.40
2018,10,21,04,42,4.40
2018,10,21,04,43,4.30
2018,10,21,04,44,4.30
2018,10,21,04,45,4.40
2018,10,21,04,46,4.40
2018,10,21,04,47,4.40
2018,10,21,04,48,4.40
2018,10,21,04,49,4.50
2018,10,21,04,50,4.50
2018,10,21,04,51,4.50
2018,10,21,04,52,4.50
2018,10,21,04,53,4.60
2018,10,21,04,54,4.60
2018,10,21,04,55,4.60
2018,10,21,04,56,4.60
2018,10,21,04,57,4.60
2018,10,21,04,58,4.60
2018,10,21,04,59,4.60
2018,10,21,05,00,4.60
2018,10,21,05,01,4.60
2018,10,21,05,02,4.60
2018,10,21,05,03,4.60
2018,10,21,05,04,4.60
2018,10,21,05,05,4.60
2018,10,21,05,06,4.60
2018,10,21,05,07,4.60
2018,10,21,05,08,4.60
2018,10,21,05,09,4.60
2018,10,21,05,10,4.60
2018,10,21,05,11,4.60
2018,10,21,05,12,4.50
2018,10,21,05,13,4.50
2018,10,21,05,14,4.50
2018,10,21,05,15,4.50
2018,10,21,05,16,4.40
2018,10,21,05,17,4.40
2018,10,21,05,18,4.40
2018,10,21,05,19,4.40
2018,10,21,05,20,4.40
2018,10,21,05,21,4.40
2018,10,21,05,22,4.40
2018,10,21,05,23,4.40
2018,10,21,05,24,4.40
2018,10,21,05,25,4.40
2018,10,21,05,26,4.40
2018,10,21,05,27,4.40
2018,10,21,05,28,4.40
2018,10,21,05,29,4.40
2018,10,21,05,30,4.40
2018,10,21,05,31,4.40
2018,10,21,05,32,4.40
2018,10,21,05,33,4.40
2018,10,21,05,34,4.40
2018,10,21,05,35,4.40
2018,10,21,05,36,4.40
2018,10,21,05,37,4.40
2018,10,21,05,38,4.30
2018,10,21,05,39,4.30
2018,10,21,05,40,4.30
2018,10,21,05,41,4.30
2018,10,21,05,42,4.20
2018,10,21,05,43,4.20
2018,10,21,05,44,4.20
2018,10,21,05,45,4.20
2018,10,21,05,46,4.20
2018,10,21,05,47,4.20
2018,10,21,05,48,4.20
2018,10,21,05,49,4.30
2018,10,21,05,50,4.30
2018,10,21,05,51,4.30
2018,10,21,05,52,4.30
2018,10,21,05,53,4.30
2018,10,21,05,54,4.30
2018,10,21,05,55,4.30
2018,10,21,05,56,4.30
2018,10,21,05,57,4.30
2018,10,21,05,58,4.30
2018,10,21,05,59,4.30
2018,10,21,06,00,4.30
2018,10,21,06,01,4.30
2018,10,21,06,02,4.30
2018,10,21,06,03,4.30
2018,10,21,06,04,4.30
2018,10,21,06,05,4.30
2018,10,21,06,06,4.30
2018,10,21,06,07,4.30
2018,10,21,06,08,4.40
2018,10,21,06,09,4.40
2018,10,21,06,10,4.40
2018,10,21,06,11,4.40
2018,10,21,06,12,4.40
2018,10,21,06,13,4.40
2018,10,21,06,14,4.40
2018,10,21,06,15,4.40
2018,10,21,06,16,4.40
2018,10,21,06,17,4.40
2018,10,21,06,18,4.40
2018,10,21,06,19,4.30
2018,10,21,06,20,4.30
2018,10,21,06,21,4.30
2018,10,21,06,22,4.30
2018,10,21,06,23,4.30
2018,10,21,06,24,4.30
2018,10,21,06,25,4.20
2018,10,21,06,26,4.20
2018,10,21,06,27,4.20
2018,10,21,06,28,4.20
2018,10,21,06,29,4.20
2018,10,21,06,30,4.20
2018,10,21,06,31,4.20
2018,10,21,06,32,4.20
2018,10,21,06,33,4.20
2018,10,21,06,34,4.20
2018,10,21,06,35,4.20
2018,10,21,06,36,4.20
2018,10,21,06,37,4.20
2018,10,21,06,38,4.20
2018,10,21,06,39,4.20
2018,10,21,06,40,4.20
2018,10,21,06,41,4.20
2018,10,21,06,42,4.20
2018,10,21,06,43,4.20
2018,10,21,06,44,4.20
2018,10,21,06,45,4.20
2018,10,21,06,46,4.20
2018,10,21,06,47,4.20
2018,10,21,06,48,4.20
2018,10,21,06,49,4.20
2018,10,21,06,50,4.20
2018,10,21,06,51,4.20
2018,10,21,06,52,4.20
2018,10,21,06,53,4.20
2018,10,21,06,54,4.20
2018,10,21,06,55,4.20
2018,10,21,06,56,4.20
2018,10,21,06,57,4.30
2018,10,21,06,58,4.30
2018,10,21,06,59,4.30
2018,10,21,07,00,4.30
2018,10,21,07,01,4.40
2018,10,21,07,02,4.40
2018,10,21,07,03,4.30
2018,10,21,07,04,4.30
2018,10,21,07,05,4.30
2018,10,21,07,06,4.20
2018,10,21,07,07,4.20
2018,10,21,07,08,4.20
2018,10,21,07,09,4.20
2018,10,21,07,10,4.20
2018,10,21,07,11,4.10
2018,10,21,07,12,4.10
2018,10,21,07,13,4.00
2018,10,21,07,14,4.00
2018,10,21,07,15,4.00
2018,10,21,07,16,4.00
2018,10,21,07,17,4.00
2018,10,21,07,18,3.90
2018,10,21,07,19,3.90
2018,10,21,07,20,3.90
2018,10,21,07,21,3.90
2018,10,21,07,22,3.90
2018,10,21,07,23,3.90
2018,10,21,07,24,3.90
2018,10,21,07,25,3.90
2018,10,21,07,26,3.90
2018,10,21,07,27,3.90
2018,10,21,07,28,3.80
2018,10,21,07,29,3.80
2018,10,21,07,30,3.80
2018,10,21,07,31,3.80
2018,10,21,07,32,3.80
2018,10,21,07,33,3.80
2018,10,21,07,34,3.80
2018,10,21,07,35,3.80
2018,10,21,07,36,3.80
2018,10,21,07,37,3.80
2018,10,21,07,38,3.80
2018,10,21,07,39,3.80
2018,10,21,07,40,3.80
2018,10,21,07,41,3.80
2018,10,21,07,42,3.80
2018,10,21,07,43,3.80
2018,10,21,07,44,3.80
2018,10,21,07,45,3.80
2018,10,21,07,46,3.80
2018,10,21,07,47,3.80
2018,10,21,07,48,3.80
2018,10,21,07,49,3.80
2018,10,21,07,50,3.80
2018,10,21,07,51,3.80
2018,10,21,07,52,3.80
2018,10,21,07,53,3.80
2018,10,21,07,54,3.80
2018,10,21,07,55,3.80
2018,10,21,07,56,3.80
2018,10,21,07,57,3.80
2018,10,21,07,58,3.80
2018,10,21,07,59,3.80
2018,10,21,08,00,3.80
2018,10,21,08,01,3.80
2018,10,21,08,02,3.70
2018,10,21,08,03,3.70
2018,10,21,08,04,3.70
2018,10,21,08,05,3.70
2018,10,21,08,06,3.70
2018,10,21,08,07,3.70
2018,10,21,08,08,3.70
2018,10,21,08,09,3.70
2018,10,21,08,10,3.70
2018,10,21,08,11,3.80
2018,10,21,08,12,3.80
2018,10,21,08,13,3.80
2018,10,21,08,14,3.80
2018,10,21,08,15,3.80
2018,10,21,08,16,3.80
2018,10,21,08,17,3.80
2018,10,21,08,18,3.80
2018,10,21,08,19,3.80
2018,10,21,08,20,3.80
2018,10,21,08,21,3.80
2018,10,21,08,22,3.80
2018,10,21,08,23,3.80
2018,10,21,08,24,3.80
2018,10,21,08,25,3.80
2018,10,21,08,26,3.80
2018,10,21,08,27,3.80
2018,10,21,08,28,3.80
2018,10,21,08,29,3.80
2018,10,21,08,30,3.80
2018,10,21,08,31,3.80
2018,10,21,08,32,3.80
2018,10,21,08,33,3.80
2018,10,21,08,34,3.80
2018,10,21,08,35,3.80
2018,10,21,08,36,3.80
2018,10,21,08,37,3.80
2018,10,21,08,38,3.80
2018,10,21,08,39,3.90
2018,10,21,08,40,3.90
2018,10,21,08,41,3.90
2018,10,21,08,42,4.00
2018,10,21,08,43,4.00
2018,10,21,08,44,4.00
2018,10,21,08,45,4.10
2018,10,21,08,46,4.20
2018,10,21,08,47,4.20
2018,10,21,08,48,4.20
2018,10,21,08,49,4.20
2018,10,21,08,50,4.20
2018,10,21,08,51,4.30
2018,10,21,08,52,4.30
2018,10,21,08,53,4.40
2018,10,21,08,54,4.40
2018,10,21,08,55,4.50
2018,10,21,08,56,4.50
2018,10,21,08,57,4.60
2018,10,21,08,58,4.60
2018,10,21,08,59,4.60
2018,10,21,09,00,4.60
2018,10,21,09,01,4.60
2018,10,21,09,02,4.70
2018,10,21,09,03,4.80
2018,10,21,09,04,4.80
2018,10,21,09,05,4.90
2018,10,21,09,06,5.00
2018,10,21,09,07,5.10
2018,10,21,09,08,5.10
2018,10,21,09,09,5.10
2018,10,21,09,10,5.20
2018,10,21,09,11,5.20
2018,10,21,09,12,5.30
2018,10,21,09,13,5.30
2018,10,21,09,14,5.40
2018,10,21,09,15,5.40
2018,10,21,09,16,5.50
2018,10,21,09,17,5.50
2018,10,21,09,18,5.60
2018,10,21,09,19,5.70
2018,10,21,09,20,5.70
2018,10,21,09,21,5.70
2018,10,21,09,22,5.80
2018,10,21,09,23,5.80
2018,10,21,09,24,5.90
2018,10,21,09,25,6.00
2018,10,21,09,26,6.00
2018,10,21,09,27,6.10
2018,10,21,09,28,6.20
2018,10,21,09,29,6.20
2018,10,21,09,30,6.30
2018,10,21,09,31,6.40
2018,10,21,09,32,6.50
2018,10,21,09,33,6.60
2018,10,21,09,34,6.70
2018,10,21,09,35,6.80
2018,10,21,09,36,6.90
2018,10,21,09,37,7.00
2018,10,21,09,38,7.00
2018,10,21,09,39,7.10
2018,10,21,09,40,7.20
2018,10,21,09,41,7.30
2018,10,21,09,42,7.30
2018,10,21,09,43,7.40
2018,10,21,09,44,7.60
2018,10,21,09,45,7.70
2018,10,21,09,46,7.80
2018,10,21,09,47,8.00
2018,10,21,09,48,8.10
2018,10,21,09,49,8.20
2018,10,21,09,50,8.30
2018,10,21,09,51,8.50
2018,10,21,09,52,8.60
2018,10,21,09,53,8.70
2018,10,21,09,54,8.80
2018,10,21,09,55,8.90
2018,10,21,09,56,9.00
2018,10,21,09,57,9.10
2018,10,21,09,58,9.30
2018,10,21,09,59,9.50
2018,10,21,10,00,9.60
2018,10,21,10,01,9.70
2018,10,21,10,02,9.80
2018,10,21,10,03,9.90
2018,10,21,10,04,9.90
2018,10,21,10,05,10.00
2018,10,21,10,06,10.10
2018,10,21,10,07,10.10
2018,10,21,10,08,10.10
2018,10,21,10,09,10.10
2018,10,21,10,10,10.20
2018,10,21,10,11,10.30
2018,10,21,10,12,10.40
2018,10,21,10,13,10.40
2018,10,21,10,14,10.50
2018,10,21,10,15,10.60
2018,10,21,10,16,10.60
2018,10,21,10,17,10.60
2018,10,21,10,18,10.70
2018,10,21,10,19,10.60
2018,10,21,10,20,10.60
2018,10,21,10,21,10.60
2018,10,21,10,22,10.60
2018,10,21,10,23,10.60
2018,10,21,10,24,10.60
2018,10,21,10,25,10.80
2018,10,21,10,26,10.80
2018,10,21,10,27,10.90
2018,10,21,10,28,11.00
2018,10,21,10,29,11.10
2018,10,21,10,30,11.20
2018,10,21,10,31,11.30
2018,10,21,10,32,11.40
2018,10,21,10,33,11.40
2018,10,21,10,34,11.60
2018,10,21,10,35,11.60
2018,10,21,10,36,11.70
2018,10,21,10,37,11.80
2018,10,21,10,38,11.90
2018,10,21,10,39,12.00
2018,10,21,10,40,12.10
2018,10,21,10,41,12.30
2018,10,21,10,42,12.30
2018,10,21,10,43,12.40
2018,10,21,10,44,12.50
2018,10,21,10,45,12.60
2018,10,21,10,46,12.70
2018,10,21,10,47,12.80
2018,10,21,10,48,12.80
2018,10,21,10,49,12.90
2018,10,21,10,50,12.90
2018,10,21,10,51,13.00
2018,10,21,10,52,13.00
2018,10,21,10,53,13.00
2018,10,21,10,54,13.10
2018,10,21,10,55,13.20
2018,10,21,10,56,13.20
2018,10,21,10,57,13.30
2018,10,21,10,58,13.30
2018,10,21,10,59,13.30
2018,10,21,11,00,13.40
2018,10,21,11,01,13.40
2018,10,21,11,02,13.30
2018,10,21,11,03,13.30
2018,10,21,11,04,13.30
2018,10,21,11,05,13.40
2018,10,21,11,06,13.50
2018,10,21,11,07,13.60
2018,10,21,11,08,13.60
2018,10,21,11,09,13.60
2018,10,21,11,10,13.70
2018,10,21,11,11,13.80
2018,10,21,11,12,13.80
2018,10,21,11,13,13.90
2018,10,21,11,14,13.90
2018,10,21,11,15,14.00
2018,10,21,11,16,14.00
2018,10,21,11,17,14.00
2018,10,21,11,18,14.00
2018,10,21,11,19,14.00
2018,10,21,11,20,14.10
2018,10,21,11,21,14.20
2018,10,21,11,22,14.20
2018,10,21,11,23,14.20
2018,10,21,11,24,14.30
2018,10,21,11,25,14.30
2018,10,21,11,26,14.40
2018,10,21,11,27,14.40
2018,10,21,11,28,14.50
2018,10,21,11,29,14.50
2018,10,21,11,30,14.60
2018,10,21,11,31,14.60
2018,10,21,11,32,14.60
2018,10,21,11,33,14.50
2018,10,21,11,34,14.30
2018,10,21,11,35,14.30
2018,10,21,11,36,14.20
2018,10,21,11,37,14.10
2018,10,21,11,38,14.00
2018,10,21,11,39,13.90
2018,10,21,11,40,13.70
2018,10,21,11,41,13.70
2018,10,21,11,42,13.70
2018,10,21,11,43,13.70
2018,10,21,11,44,13.70
2018,10,21,11,45,13.70
2018,10,21,11,46,13.70
2018,10,21,11,47,13.80
2018,10,21,11,48,13.80
2018,10,21,11,49,13.80
2018,10,21,11,50,13.70
2018,10,21,11,51,13.70
2018,10,21,11,52,13.70
2018,10,21,11,53,13.70
2018,10,21,11,54,13.60
2018,10,21,11,55,13.50
2018,10,21,11,56,13.50
2018,10,21,11,57,13.50
2018,10,21,11,58,13.40
2018,10,21,11,59,13.40
2018,10,21,12,00,13.50
2018,10,21,12,01,13.50
2018,10,21,12,02,13.40
2018,10,21,12,03,13.20
2018,10,21,12,04,13.10
2018,10,21,12,05,13.10
2018,10,21,12,06,13.10
2018,10,21,12,07,13.10
2018,10,21,12,08,13.20
2018,10,21,12,09,13.30
2018,10,21,12,10,13.30
2018,10,21,12,11,13.40
2018,10,21,12,12,13.50
2018,10,21,12,13,13.60
2018,10,21,12,14,13.60
2018,10,21,12,15,13.70
2018,10,21,12,16,13.70
2018,10,21,12,17,13.70
2018,10,21,12,18,13.70
2018,10,21,12,19,13.60
2018,10,21,12,20,13.60
2018,10,21,12,21,13.60
2018,10,21,12,22,13.50
2018,10,21,12,23,13.50
2018,10,21,12,24,13.50
2018,10,21,12,25,13.60
2018,10,21,12,26,13.70
2018,10,21,12,27,13.70
2018,10,21,12,28,13.70
2018,10,21,12,29,13.70
2018,10,21,12,30,13.80
2018,10,21,12,31,13.90
2018,10,21,12,32,13.90
2018,10,21,12,33,13.90
2018,10,21,12,34,13.90
2018,10,21,12,35,14.00
2018,10,21,12,36,14.10
2018,10,21,12,37,14.00
2018,10,21,12,38,14.00
2018,10,21,12,39,14.00
2018,10,21,12,40,14.10
2018,10,21,12,41,14.20
2018,10,21,12,42,14.20
2018,10,21,12,43,14.20
2018,10,21,12,44,14.20
2018,10,21,12,45,14.30
2018,10,21,12,46,14.30
2018,10,21,12,47,14.40
2018,10,21,12,48,14.40
2018,10,21,12,49,14.50
2018,10,21,12,50,14.50
2018,10,21,12,51,14.60
2018,10,21,12,52,14.60
2018,10,21,12,53,14.70
2018,10,21,12,54,14.70
2018,10,21,12,55,14.80
2018,10,21,12,56,14.80
2018,10,21,12,57,14.90
2018,10,21,12,58,15.00
2018,10,21,12,59,15.10
2018,10,21,13,00,15.30
2018,10,21,13,01,15.30
2018,10,21,13,02,15.40
2018,10,21,13,03,15.40
2018,10,21,13,04,15.40
2018,10,21,13,05,15.40
2018,10,21,13,06,15.30
2018,10,21,13,07,15.40
2018,10,21,13,08,15.50
2018,10,21,13,09,15.50
2018,10,21,13,10,15.60
2018,10,21,13,11,15.60
2018,10,21,13,12,15.60
2018,10,21,13,13,15.50
2018,10,21,13,14,15.50
2018,10,21,13,15,15.60
2018,10,21,13,16,15.70
2018,10,21,13,17,15.60
2018,10,21,13,18,15.60
2018,10,21,13,19,15.50
2018,10,21,13,20,15.50
2018,10,21,13,21,15.40
2018,10,21,13,22,15.50
2018,10,21,13,23,15.50
2018,10,21,13,24,15.40
2018,10,21,13,25,15.20
2018,10,21,13,26,15.10
2018,10,21,13,27,14.90
2018,10,21,13,28,14.80
2018,10,21,13,29,14.70
2018,10,21,13,30,14.60
2018,10,21,13,31,14.50
2018,10,21,13,32,14.40
2018,10,21,13,33,14.20
2018,10,21,13,34,14.20
2018,10,21,13,35,14.20
2018,10,21,13,36,14.20
2018,10,21,13,37,14.20
2018,10,21,13,38,14.20
2018,10,21,13,39,14.20
2018,10,21,13,40,14.10
2018,10,21,13,41,14.00
2018,10,21,13,42,14.00
2018,10,21,13,43,14.00
2018,10,21,13,44,14.00
2018,10,21,13,45,14.00
2018,10,21,13,46,14.00
2018,10,21,13,47,14.00
2018,10,21,13,48,13.90
2018,10,21,13,49,14.00
2018,10,21,13,50,14.00
2018,10,21,13,51,14.00
2018,10,21,13,52,14.00
2018,10,21,13,53,13.90
2018,10,21,13,54,13.80
2018,10,21,13,55,13.80
2018,10,21,13,56,13.80
2018,10,21,13,57,13.70
2018,10,21,13,58,13.70
2018,10,21,13,59,13.60
2018,10,21,14,00,13.60
2018,10,21,14,01,13.50
2018,10,21,14,02,13.50
2018,10,21,14,03,13.60
2018,10,21,14,04,13.60
2018,10,21,14,05,13.70
2018,10,21,14,06,13.70
2018,10,21,14,07,13.70
2018,10,21,14,08,13.70
2018,10,21,14,09,13.70
2018,10,21,14,10,13.70
2018,10,21,14,11,13.70
2018,10,21,14,12,13.70
2018,10,21,14,13,13.60
2018,10,21,14,14,13.60
2018,10,21,14,15,13.50
2018,10,21,14,16,13.40
2018,10,21,14,17,13.40
2018,10,21,14,18,13.40
2018,10,21,14,19,13.40
2018,10,21,14,20,13.40
2018,10,21,14,21,13.40
2018,10,21,14,22,13.50
2018,10,21,14,23,13.60
2018,10,21,14,24,13.70
2018,10,21,14,25,13.70
2018,10,21,14,26,13.70
2018,10,21,14,27,13.70
2018,10,21,14,28,13.70
2018,10,21,14,29,13.80
2018,10,21,14,30,13.90
2018,10,21,14,31,13.90
2018,10,21,14,32,14.00
2018,10,21,14,33,13.90
2018,10,21,14,34,13.90
2018,10,21,14,35,13.90
2018,10,21,14,36,14.00
2018,10,21,14,37,14.00
2018,10,21,14,38,14.00
2018,10,21,14,39,14.00
2018,10,21,14,40,14.00
2018,10,21,14,41,14.10
2018,10,21,14,42,14.20
2018,10,21,14,43,14.40
2018,10,21,14,44,14.50
2018,10,21,14,45,14.60
2018,10,21,14,46,14.70
2018,10,21,14,47,14.70
2018,10,21,14,48,14.60
2018,10,21,14,49,14.60
2018,10,21,14,50,14.60
2018,10,21,14,51,14.70
2018,10,21,14,52,14.60
2018,10,21,14,53,14.60
2018,10,21,14,54,14.50
2018,10,21,14,55,14.40
2018,10,21,14,56,14.40
2018,10,21,14,57,14.40
2018,10,21,14,58,14.40
2018,10,21,14,59,14.40
2018,10,21,15,00,14.40
2018,10,21,15,01,14.30
2018,10,21,15,02,14.30
2018,10,21,15,03,14.40
2018,10,21,15,04,14.40
2018,10,21,15,05,14.50
2018,10,21,15,06,14.50
2018,10,21,15,07,14.60
2018,10,21,15,08,14.60
2018,10,21,15,09,14.60
2018,10,21,15,10,14.60
2018,10,21,15,11,14.60
2018,10,21,15,12,14.60
2018,10,21,15,13,14.60
2018,10,21,15,14,14.60
2018,10,21,15,15,14.60
2018,10,21,15,16,14.60
2018,10,21,15,17,14.60
2018,10,21,15,18,14.60
2018,10,21,15,19,14.70
2018,10,21,15,20,14.80
2018,10,21,15,21,14.90
2018,10,21,15,22,15.00
2018,10,21,15,23,15.10
2018,10,21,15,24,15.10
2018,10,21,15,25,15.30
2018,10,21,15,26,15.30
2018,10,21,15,27,15.30
2018,10,21,15,28,15.30
2018,10,21,15,29,15.20
2018,10,21,15,30,15.20
2018,10,21,15,31,15.10
2018,10,21,15,32,15.00
2018,10,21,15,33,14.90
2018,10,21,15,34,14.80
2018,10,21,15,35,14.70
2018,10,21,15,36,14.60
2018,10,21,15,37,14.50
2018,10,21,15,38,14.50
2018,10,21,15,39,14.40
2018,10,21,15,40,14.40
2018,10,21,15,41,14.40
2018,10,21,15,42,14.30
2018,10,21,15,43,14.20
2018,10,21,15,44,14.20
2018,10,21,15,45,14.30
2018,10,21,15,46,14.40
2018,10,21,15,47,14.40
2018,10,21,15,48,14.40
2018,10,21,15,49,14.40
2018,10,21,15,50,14.40
2018,10,21,15,51,14.40
2018,10,21,15,52,14.40
2018,10,21,15,53,14.40
2018,10,21,15,54,14.40
2018,10,21,15,55,14.40
2018,10,21,15,56,14.50
2018,10,21,15,57,14.50
2018,10,21,15,58,14.40
2018,10,21,15,59,14.40
2018,10,21,16,00,14.40
2018,10,21,16,01,14.30
2018,10,21,16,02,14.30
2018,10,21,16,03,14.30
2018,10,21,16,04,14.30
2018,10,21,16,05,14.20
2018,10,21,16,06,14.20
2018,10,21,16,07,14.20
2018,10,21,16,08,14.20
2018,10,21,16,09,14.20
2018,10,21,16,10,14.20
2018,10,21,16,11,14.20
2018,10,21,16,12,14.20
2018,10,21,16,13,14.20
2018,10,21,16,14,14.20
2018,10,21,16,15,14.20
2018,10,21,16,16,14.20
2018,10,21,16,17,14.20
2018,10,21,16,18,14.20
2018,10,21,16,19,14.20
2018,10,21,16,20,14.20
2018,10,21,16,21,14.20
2018,10,21,16,22,14.20
2018,10,21,16,23,14.20
2018,10,21,16,24,14.20
2018,10,21,16,25,14.30
2018,10,21,16,26,14.30
2018,10,21,16,27,14.40
2018,10,21,16,28,14.40
2018,10,21,16,29,14.50
2018,10,21,16,30,14.50
2018,10,21,16,31,14.50
2018,10,21,16,32,14.50
2018,10,21,16,33,14.50
2018,10,21,16,34,14.50
2018,10,21,16,35,14.50
2018,10,21,16,36,14.50
2018,10,21,16,37,14.40
2018,10,21,16,38,14.40
2018,10,21,16,39,14.40
2018,10,21,16,40,14.40
2018,10,21,16,41,14.40
2018,10,21,16,42,14.40
2018,10,21,16,43,14.40
2018,10,21,16,44,14.40
2018,10,21,16,45,14.30
2018,10,21,16,46,14.30
2018,10,21,16,47,14.20
2018,10,21,16,48,14.20
2018,10,21,16,49,14.20
2018,10,21,16,50,14.20
2018,10,21,16,51,14.20
2018,10,21,16,52,14.20
2018,10,21,16,53,14.20
2018,10,21,16,54,14.10
2018,10,21,16,55,14.10
2018,10,21,16,56,14.10
2018,10,21,16,57,14.00
2018,10,21,16,58,14.00
2018,10,21,16,59,14.00
2018,10,21,17,00,14.00
2018,10,21,17,01,14.00
2018,10,21,17,02,13.90
2018,10,21,17,03,13.90
2018,10,21,17,04,13.90
2018,10,21,17,05,13.90
2018,10,21,17,06,13.90
2018,10,21,17,07,13.90
2018,10,21,17,08,14.00
2018,10,21,17,09,14.00
2018,10,21,17,10,14.00
2018,10,21,17,11,14.00
2018,10,21,17,12,14.00
2018,10,21,17,13,13.90
2018,10,21,17,14,13.90
2018,10,21,17,15,13.90
2018,10,21,17,16,13.80
2018,10,21,17,17,13.80
2018,10,21,17,18,13.70
2018,10,21,17,19,13.70
2018,10,21,17,20,13.70
2018,10,21,17,21,13.60
2018,10,21,17,22,13.60
2018,10,21,17,23,13.60
2018,10,21,17,24,13.50
2018,10,21,17,25,13.50
2018,10,21,17,26,13.40
2018,10,21,17,27,13.40
2018,10,21,17,28,13.30
2018,10,21,17,29,13.30
2018,10,21,17,30,13.30
2018,10,21,17,31,13.20
2018,10,21,17,32,13.20
2018,10,21,17,33,13.10
2018,10,21,17,34,13.10
2018,10,21,17,35,13.00
2018,10,21,17,36,13.00
2018,10,21,17,37,12.90
2018,10,21,17,38,12.90
2018,10,21,17,39,12.80
2018,10,21,17,40,12.80
2018,10,21,17,41,12.80
2018,10,21,17,42,12.80
2018,10,21,17,43,12.80
2018,10,21,17,44,12.80
2018,10,21,17,45,12.80